Home > Weather > Citrus Heights > Past weeks

Flag for USA Past Weather in Citrus Heights, California, USA — Yesterday and Last 2 Weeks

Now
90 °F

Sunny.


Feels Like: 86 °F
Forecast: 60 / 101 °F
Wind: 9 mph from North

Location: Mather Field

Current Time: Jun 24, 2016 at 5:07:52 PM

Latest Report: Jun 24, 2016 at 3:45 PM


Visibility: 10 mi

Pressure: 29.97 "Hg

Humidity: 24%

Dew Point: 48 °F

Location of Citrus HeightsLocation

Past Weather in Citrus Heights — Graph

°F

Citrus Heights Temperature Yesterday

Maximum temperature yesterday: 91 °F (at 2:45 PM)
Minimum temperature yesterday: 54 °F (at 5:50 AM)
Average temperature yesterday: 73 °F

High & Low Weather Summary for the Past Weeks

 TemperatureHumidityPressure
High99 °F (Jun 21, 3:45 PM)94% (Jun 16, 4:55 AM)30.18 "Hg (Jun 16, 4:55 AM)
Low48 °F (Jun 15, 5:45 AM)9% (Jun 20, 5:50 PM)29.82 "Hg (Jun 9, 6:53 PM)
Average71 °F47%29.98 "Hg
* Reported Jun 9 3:45 PM — Jun 24 3:45 PM, Citrus Heights, Weather by CustomWeather, © 2016

Note: Actual official high and low records may vary slightly from our data, if they occured in-between our weather recording intervals... More about our weather records

Advertising

Citrus Heights Weather History for the Previous 24 Hours

Scroll right to see more
 ConditionsComfort  
Time TempWeatherWind HumidityBarometerVisibility
3:45 PM
Fri, Jun 24
90 °FSunny.9 mph24%29.97 "Hg10 mi
2:50 PM88 °FSunny.10 mph29%29.99 "Hg10 mi
1:58 PM86 °FSunny.13 mph31%30.00 "Hg10 mi
12:45 PM82 °FSunny.9 mph32%30.02 "Hg10 mi
11:45 AM77 °FSunny.No wind42%30.04 "Hg10 mi
10:46 AM73 °FSunny.No wind47%30.05 "Hg10 mi
9:46 AM70 °FSunny.5 mph53%30.05 "Hg10 mi
8:46 AM66 °FSunny.5 mph64%30.05 "Hg10 mi
7:46 AM63 °FSunny.6 mph73%30.03 "Hg10 mi
6:46 AM59 °FSunny.No wind82%30.03 "Hg10 mi
5:45 AM55 °FClear.7 mph82%30.01 "Hg10 mi
3:50 AM59 °FClear.8 mph72%30.00 "Hg10 mi
11:30 PM
Thu, Jun 23
66 °FClear.9 mph56%30.00 "Hg10 mi
10:45 PM66 °FClear.7 mph56%30.00 "Hg10 mi
9:50 PM68 °FClear.8 mph49%29.98 "Hg10 mi
8:45 PM73 °FSunny.10 mph44%29.96 "Hg10 mi
7:45 PM81 °FSunny.12 mph34%29.95 "Hg10 mi
6:45 PM86 °FSunny.14 mph29%29.94 "Hg10 mi
5:45 PM90 °FSunny.13 mph26%29.94 "Hg10 mi
Weather by CustomWeather, © 2016

See weather overviewHow to use our weather pages